Trinity Center, CA

7:37 AM PST on December 05, 2016 (GMT -0800)
Trinity Center

Weather History for KO86 - April, 2013

Change the Weather History Date:

Tuesday, April 30, 2013

  Actual Average (KMHS) Record (KMHS)
Temperature  
Mean Temperature 59 °F 50 °F  
Max Temperature 68 °F 65 °F 86 °F (1981)
Min Temperature 50 °F 36 °F 22 °F (1953)
Degree Days  
Heating Degree Days 6 15  
Month to date heating degree days 536  
Since 1 July heating degree days 5215  
Cooling Degree Days 0 0  
Month to date cooling degree days 0  
Year to date cooling degree days 0  
Growing Degree Days 9 (Base 50)    
Moisture  
Dew Point 18 °F    
Average Humidity 23    
Maximum Humidity 41    
Minimum Humidity 9    
Precipitation  
Precipitation 0.00 in 0.07 in 0.70 in (1925)
Month to date precipitation 2.93  
Year to date precipitation 23.18  
Sea Level Pressure  
Sea Level Pressure 30.10 in    
Wind  
Wind Speed 10 mph (North)    
Max Wind Speed 15 mph    
Max Gust Speed 26 mph    
Visibility 10 miles    
Events      
T = Trace of Precipitation, MM = Missing Value Source: NWS Daily Summary

Daily Weather History Graph

Daily Weather History Graph

Search for Another Location

Airport or City:

Trip Planner

Search our weather history database for the weather conditions in past years. The results will help you decide how hot, cold, wet, or windy it might be!

Date:

Astronomy

Apr. 30, 2013 Rise Set
Actual Time 6:09 AM PDT 8:06 PM PDT
Civil Twilight 5:39 AM PDT 8:36 PM PDT
Nautical Twilight 5:03 AM PDT 9:13 PM PDT
Astronomical Twilight 4:24 AM PDT 9:52 PM PDT
Moon 12:35 AM PDT (4/30) 10:44 AM PDT (4/30)
Length of Visible Light 14h 56m
Length of Day
13h 57m
Waning Gibbous, 69% of the Moon is Illuminated
Apr 30
Waning Gibbous
May 2
Last Quarter
May 9
New
May 17
First Quarter
May 24
Full

Hourly Weather History & Observations

Time (PDT) Temp. Dew Point Humidity Pressure Visibility Wind Dir Wind Speed Gust Speed Precip Events Conditions
12:10 AM 57.2 °F 30.2 °F 36% 30.01 in 10.0 mi North 8.1 mph - N/A   Clear
12:30 AM 57.2 °F 30.2 °F 36% 30.01 in 10.0 mi NW 8.1 mph - N/A   Clear
12:50 AM 57.2 °F 30.2 °F 36% 30.01 in 10.0 mi North 9.2 mph - N/A   Clear
1:10 AM 57.2 °F 32.0 °F 38% 30.01 in 10.0 mi NNE 6.9 mph - N/A   Clear
1:30 AM 55.4 °F 32.0 °F 41% 30.00 in 10.0 mi NNE 5.8 mph - N/A   Clear
1:50 AM 55.4 °F 32.0 °F 41% 30.00 in 10.0 mi NNE 8.1 mph 16.1 mph N/A   Clear
2:10 AM 55.4 °F 32.0 °F 41% 30.00 in 10.0 mi NNE 10.4 mph - N/A   Clear
2:30 AM 55.4 °F 30.2 °F 38% 30.00 in 10.0 mi NE 11.5 mph 18.4 mph N/A   Clear
2:50 AM 55.4 °F 26.6 °F 33% 30.00 in 10.0 mi NNE 10.4 mph 18.4 mph N/A   Clear
3:10 AM 55.4 °F 26.6 °F 33% 30.00 in 10.0 mi NNE 11.5 mph 17.3 mph N/A   Clear
3:30 AM 55.4 °F 24.8 °F 31% 30.01 in 10.0 mi North 8.1 mph - N/A   Clear
3:50 AM 55.4 °F 24.8 °F 31% 30.00 in 10.0 mi NNE 9.2 mph 20.7 mph N/A   Clear
4:10 AM 53.6 °F 28.4 °F 38% 30.01 in 10.0 mi North 12.7 mph 23.0 mph N/A   Clear
4:30 AM 53.6 °F 26.6 °F 35% 30.01 in 10.0 mi North 10.4 mph 18.4 mph N/A   Clear
4:50 AM 53.6 °F 26.6 °F 35% 30.01 in 10.0 mi North 9.2 mph 17.3 mph N/A   Clear
5:10 AM 53.6 °F 24.8 °F 33% 30.02 in 10.0 mi North 13.8 mph 19.6 mph N/A   Clear
5:30 AM 51.8 °F 24.8 °F 35% 30.03 in 10.0 mi North 8.1 mph 17.3 mph N/A   Clear
5:50 AM 51.8 °F 24.8 °F 35% 30.04 in 10.0 mi NNW 9.2 mph 16.1 mph N/A   Clear
6:10 AM 50.0 °F 24.8 °F 37% 30.04 in 10.0 mi NNW 9.2 mph 16.1 mph N/A   Clear
6:30 AM 50.0 °F 24.8 °F 37% 30.05 in 10.0 mi NNW 8.1 mph - N/A   Clear
6:50 AM 50.0 °F 24.8 °F 37% 30.06 in 10.0 mi North 5.8 mph - N/A   Clear
7:10 AM 50.0 °F 24.8 °F 37% 30.07 in 10.0 mi North 6.9 mph - N/A   Clear
7:30 AM 51.8 °F 23.0 °F 33% 30.08 in 10.0 mi NNE 8.1 mph - N/A   Clear
7:50 AM 51.8 °F 23.0 °F 33% 30.08 in 10.0 mi North 8.1 mph 16.1 mph N/A   Clear
8:10 AM 53.6 °F 19.4 °F 26% 30.09 in 10.0 mi North 13.8 mph 19.6 mph N/A   Clear
8:30 AM 53.6 °F 17.6 °F 24% 30.09 in 10.0 mi North 13.8 mph 24.2 mph N/A   Clear
8:50 AM 53.6 °F 19.4 °F 26% 30.09 in 10.0 mi North 9.2 mph 21.9 mph N/A   Clear
9:10 AM 55.4 °F 23.0 °F 29% 30.10 in 10.0 mi North 8.1 mph 20.7 mph N/A   Clear
9:30 AM 55.4 °F 23.0 °F 29% 30.10 in 10.0 mi North 10.4 mph 21.9 mph N/A   Clear
9:50 AM 57.2 °F 19.4 °F 23% 30.10 in 10.0 mi NNE 10.4 mph 18.4 mph N/A   Clear
10:10 AM 57.2 °F 17.6 °F 21% 30.10 in 10.0 mi North 11.5 mph 19.6 mph N/A   Clear
10:30 AM 59.0 °F 15.8 °F 19% 30.10 in 10.0 mi North 13.8 mph 25.3 mph N/A   Clear
10:50 AM 59.0 °F 15.8 °F 19% 30.11 in 10.0 mi North 8.1 mph 19.6 mph N/A   Clear
11:10 AM 59.0 °F 15.8 °F 19% 30.10 in 10.0 mi North 13.8 mph 25.3 mph N/A   Clear
11:30 AM 60.8 °F 12.2 °F 15% 30.10 in 10.0 mi North 10.4 mph 24.2 mph N/A   Clear
11:50 AM 62.6 °F 10.4 °F 13% 30.10 in 10.0 mi North 15.0 mph 21.9 mph N/A   Clear
12:10 PM 62.6 °F 12.2 °F 14% 30.09 in 10.0 mi North 12.7 mph 20.7 mph N/A   Clear
12:30 PM 64.4 °F 14.0 °F 14% 30.09 in 10.0 mi North 9.2 mph 20.7 mph N/A   Clear
12:50 PM 64.4 °F 10.4 °F 12% 30.10 in 10.0 mi North 11.5 mph 23.0 mph N/A   Clear
1:10 PM 64.4 °F 14.0 °F 14% 30.09 in 10.0 mi North 11.5 mph 20.7 mph N/A   Clear
1:30 PM 64.4 °F 8.6 °F 11% 30.10 in 10.0 mi North 15.0 mph 21.9 mph N/A   Clear
1:50 PM 66.2 °F 8.6 °F 11% 30.10 in 10.0 mi NNW 11.5 mph 24.2 mph N/A   Clear
2:10 PM 66.2 °F 8.6 °F 11% 30.10 in 10.0 mi North 12.7 mph 26.5 mph N/A   Clear
2:30 PM 66.2 °F 10.4 °F 11% 30.11 in 10.0 mi North 10.4 mph 21.9 mph N/A   Clear
2:50 PM 66.2 °F 14.0 °F 13% 30.11 in 10.0 mi North 13.8 mph 23.0 mph N/A   Clear
3:10 PM 66.2 °F 14.0 °F 13% 30.11 in 10.0 mi NNE 11.5 mph 20.7 mph N/A   Clear
3:30 PM 66.2 °F 14.0 °F 13% 30.11 in 10.0 mi NNE 9.2 mph 25.3 mph N/A   Clear
3:50 PM 66.2 °F 12.2 °F 12% 30.10 in 10.0 mi NE 6.9 mph 17.3 mph N/A   Clear
4:10 PM 68.0 °F 8.6 °F 10% 30.10 in 10.0 mi NNE 8.1 mph 18.4 mph N/A   Clear
4:30 PM 68.0 °F 8.6 °F 10% 30.10 in 10.0 mi NW 5.8 mph - N/A   Clear
4:50 PM 68.0 °F 10.4 °F 11% 30.10 in 10.0 mi North 10.4 mph 17.3 mph N/A   Clear
5:10 PM 68.0 °F 6.8 °F 9% 30.10 in 10.0 mi North 9.2 mph 18.4 mph N/A   Clear
5:30 PM 68.0 °F 6.8 °F 9% 30.11 in 10.0 mi North 11.5 mph 17.3 mph N/A   Clear
5:50 PM 66.2 °F 5.0 °F 9% 30.11 in 10.0 mi NNW 11.5 mph 20.7 mph N/A   Clear
6:10 PM 66.2 °F 5.0 °F 9% 30.12 in 10.0 mi North 9.2 mph 19.6 mph N/A   Clear
6:30 PM 66.2 °F 5.0 °F 9% 30.12 in 10.0 mi NNW 12.7 mph 20.7 mph N/A   Clear
6:50 PM 64.4 °F 6.8 °F 10% 30.13 in 10.0 mi North 10.4 mph 21.9 mph N/A   Clear
7:10 PM 64.4 °F 6.8 °F 10% 30.14 in 10.0 mi NNW 10.4 mph 24.2 mph N/A   Clear
7:30 PM 60.8 °F 10.4 °F 14% 30.15 in 10.0 mi North 6.9 mph - N/A   Clear
7:50 PM 59.0 °F 10.4 °F 15% 30.15 in 10.0 mi NNW 5.8 mph - N/A   Clear
8:10 PM 59.0 °F 12.2 °F 16% 30.16 in 10.0 mi NNW 8.1 mph - N/A   Clear
8:30 PM 57.2 °F 12.2 °F 17% 30.17 in 10.0 mi NNW 10.4 mph - N/A   Clear
8:50 PM 57.2 °F 12.2 °F 17% 30.18 in 10.0 mi NW 5.8 mph - N/A   Clear
9:10 PM 57.2 °F 14.0 °F 18% 30.19 in 10.0 mi NNW 12.7 mph 18.4 mph N/A   Clear
9:30 PM 57.2 °F 14.0 °F 18% 30.20 in 10.0 mi North 9.2 mph 16.1 mph N/A   Clear
9:50 PM 57.2 °F 15.8 °F 20% 30.21 in 10.0 mi North 9.2 mph 18.4 mph N/A   Clear
10:10 PM 55.4 °F 15.8 °F 21% 30.23 in 10.0 mi NNW 8.1 mph - N/A   Clear
10:30 PM 55.4 °F 17.6 °F 23% 30.23 in 10.0 mi NNW 10.4 mph - N/A   Clear
10:50 PM 55.4 °F 17.6 °F 23% 30.23 in 10.0 mi North 9.2 mph 17.3 mph N/A   Clear
11:10 PM 55.4 °F 19.4 °F 25% 30.24 in 10.0 mi North 10.4 mph 20.7 mph N/A   Clear
11:30 PM 53.6 °F 19.4 °F 26% 30.24 in 10.0 mi North 10.4 mph - N/A   Clear
11:50 PM 53.6 °F 21.2 °F 28% 30.25 in 10.0 mi North 9.2 mph - N/A   Clear